Time,TemperatureF,DewpointF,PressureIn,WindDirection,WindDirectionDegrees,WindSpeedMPH,WindSpeedGustMPH,Humidity,HourlyPrecipIn,Conditions,Clouds,dailyrainin,SoftwareType,DateUTC
2013-01-31 00:00:00,38.6,22.9,30.14,NW,310,0.0,0.0,53,0.00,,,0.00,Wunderground v.1.15,2013-01-31 06:00:00,
2013-01-31 00:10:00,38.5,22.8,30.13,NW,310,0.0,0.0,53,0.00,,,0.00,Wunderground v.1.15,2013-01-31 06:10:00,
2013-01-31 00:15:00,38.3,23.1,30.13,NW,310,0.0,0.0,54,0.00,,,0.00,Wunderground v.1.15,2013-01-31 06:15:00,
2013-01-31 00:20:00,38.2,23.0,30.14,NW,310,0.0,0.0,54,0.00,,,0.00,Wunderground v.1.15,2013-01-31 06:20:00,
2013-01-31 00:25:00,38.1,22.9,30.14,NW,310,0.0,0.0,54,0.00,,,0.00,Wunderground v.1.15,2013-01-31 06:25:00,
2013-01-31 00:35:00,38.0,23.3,30.14,NW,307,0.0,4.0,55,0.00,,,0.00,Wunderground v.1.15,2013-01-31 06:35:00,
2013-01-31 00:40:00,37.9,23.2,30.14,NW,304,0.0,0.0,55,0.00,,,0.00,Wunderground v.1.15,2013-01-31 06:40:00,
2013-01-31 00:45:00,37.9,23.2,30.14,SW,219,1.0,4.0,55,0.00,,,0.00,Wunderground v.1.15,2013-01-31 06:45:00,
2013-01-31 00:50:00,38.1,23.3,30.15,SSW,211,3.0,5.0,55,0.00,,,0.00,Wunderground v.1.15,2013-01-31 06:50:00,
2013-01-31 00:55:00,38.3,23.5,30.14,SSW,213,4.0,6.0,55,0.00,,,0.00,Wunderground v.1.15,2013-01-31 06:55:00,
2013-01-31 01:00:00,38.5,23.3,30.14,SSW,212,4.0,4.0,54,0.00,,,0.00,Wunderground v.1.15,2013-01-31 07:00:00,
2013-01-31 01:10:00,38.6,23.8,30.15,SSW,203,3.0,4.0,55,0.00,,,0.00,Wunderground v.1.15,2013-01-31 07:10:00,
2013-01-31 01:15:00,38.6,23.8,30.14,SSW,200,3.0,4.0,55,0.00,,,0.00,Wunderground v.1.15,2013-01-31 07:15:00,
2013-01-31 01:25:00,38.6,23.4,30.14,SSW,211,4.0,6.0,54,0.00,,,0.00,Wunderground v.1.15,2013-01-31 07:25:00,
2013-01-31 01:30:00,38.7,23.5,30.14,SSW,210,4.0,5.0,54,0.00,,,0.00,Wunderground v.1.15,2013-01-31 07:30:00,
2013-01-31 01:35:00,38.7,23.5,30.13,SSW,209,3.0,5.0,54,0.00,,,0.00,Wunderground v.1.15,2013-01-31 07:35:00,
2013-01-31 01:45:00,38.7,23.5,30.14,SSW,208,3.0,4.0,54,0.00,,,0.00,Wunderground v.1.15,2013-01-31 07:45:00,
2013-01-31 01:50:00,38.7,23.5,30.14,SSW,210,4.0,5.0,54,0.00,,,0.00,Wunderground v.1.15,2013-01-31 07:50:00,
2013-01-31 01:55:00,38.7,23.5,30.14,SSW,209,3.0,5.0,54,0.00,,,0.00,Wunderground v.1.15,2013-01-31 07:55:00,
2013-01-31 02:00:00,38.6,23.4,30.14,SSW,208,2.0,3.0,54,0.00,,,0.00,Wunderground v.1.15,2013-01-31 08:00:00,
2013-01-31 02:10:00,38.3,23.5,30.14,SSW,205,3.0,3.0,55,0.00,,,0.00,Wunderground v.1.15,2013-01-31 08:10:00,
2013-01-31 02:15:00,38.1,23.3,30.14,SSW,207,3.0,4.0,55,0.00,,,0.00,Wunderground v.1.15,2013-01-31 08:15:00,
2013-01-31 02:20:00,37.9,23.2,30.14,SSW,207,3.0,4.0,55,0.00,,,0.00,Wunderground v.1.15,2013-01-31 08:20:00,
2013-01-31 02:25:00,37.8,23.1,30.14,SSW,202,3.0,4.0,55,0.00,,,0.00,Wunderground v.1.15,2013-01-31 08:25:00,
2013-01-31 02:35:00,37.6,22.9,30.14,SSW,206,3.0,4.0,55,0.00,,,0.00,Wunderground v.1.15,2013-01-31 08:35:00,
2013-01-31 02:40:00,37.6,22.9,30.14,SSW,204,3.0,4.0,55,0.00,,,0.00,Wunderground v.1.15,2013-01-31 08:40:00,
2013-01-31 02:45:00,37.5,22.8,30.14,SSW,205,3.0,6.0,55,0.00,,,0.00,Wunderground v.1.15,2013-01-31 08:45:00,
2013-01-31 02:55:00,37.5,22.8,30.14,SSW,203,4.0,5.0,55,0.00,,,0.00,Wunderground v.1.15,2013-01-31 08:55:00,
2013-01-31 03:00:00,37.6,22.9,30.14,SSW,207,4.0,4.0,55,0.00,,,0.00,Wunderground v.1.15,2013-01-31 09:00:00,
2013-01-31 03:10:00,37.7,22.5,30.14,SSW,205,4.0,4.0,54,0.00,,,0.00,Wunderground v.1.15,2013-01-31 09:10:00,
2013-01-31 03:15:00,37.9,22.7,30.14,SSW,211,4.0,6.0,54,0.00,,,0.00,Wunderground v.1.15,2013-01-31 09:15:00,
2013-01-31 03:20:00,38.1,22.0,30.14,SSW,209,5.0,5.0,52,0.00,,,0.00,Wunderground v.1.15,2013-01-31 09:20:00,
2013-01-31 03:25:00,38.4,22.3,30.14,SSW,209,5.0,5.0,52,0.00,,,0.00,Wunderground v.1.15,2013-01-31 09:25:00,
2013-01-31 03:30:00,38.7,22.1,30.15,SSW,203,4.0,4.0,51,0.00,,,0.00,Wunderground v.1.15,2013-01-31 09:30:00,
2013-01-31 03:35:00,38.9,21.8,30.14,SSW,207,4.0,4.0,50,0.00,,,0.00,Wunderground v.1.15,2013-01-31 09:35:00,
2013-01-31 03:45:00,39.1,22.0,30.14,SSW,205,3.0,4.0,50,0.00,,,0.00,Wunderground v.1.15,2013-01-31 09:45:00,
2013-01-31 03:50:00,39.2,22.1,30.14,SSW,196,3.0,3.0,50,0.00,,,0.00,Wunderground v.1.15,2013-01-31 09:50:00,
2013-01-31 03:55:00,39.2,22.1,30.14,SSW,197,4.0,5.0,50,0.00,,,0.00,Wunderground v.1.15,2013-01-31 09:55:00,
2013-01-31 04:00:00,39.3,22.2,30.14,SSW,206,5.0,5.0,50,0.00,,,0.00,Wunderground v.1.15,2013-01-31 10:00:00,
2013-01-31 04:10:00,39.2,22.1,30.14,SSW,213,5.0,7.0,50,0.00,,,0.00,Wunderground v.1.15,2013-01-31 10:10:00,
2013-01-31 04:15:00,39.1,22.5,30.14,SW,218,4.0,7.0,51,0.00,,,0.00,Wunderground v.1.15,2013-01-31 10:15:00,
2013-01-31 04:20:00,39.0,22.4,30.14,SW,225,4.0,4.0,51,0.00,,,0.00,Wunderground v.1.15,2013-01-31 10:20:00,
2013-01-31 04:30:00,38.8,22.2,30.14,SW,225,3.0,4.0,51,0.00,,,0.00,Wunderground v.1.15,2013-01-31 10:30:00,
2013-01-31 04:35:00,38.8,21.7,30.14,SW,227,3.0,4.0,50,0.00,,,0.00,Wunderground v.1.15,2013-01-31 10:35:00,
2013-01-31 04:40:00,38.7,22.1,30.14,SW,226,2.0,2.0,51,0.00,,,0.00,Wunderground v.1.15,2013-01-31 10:40:00,
2013-01-31 04:45:00,38.5,21.9,30.14,SW,226,1.0,2.0,51,0.00,,,0.00,Wunderground v.1.15,2013-01-31 10:45:00,
2013-01-31 04:55:00,38.0,21.9,30.14,SW,226,1.0,2.0,52,0.00,,,0.00,Wunderground v.1.15,2013-01-31 10:55:00,
2013-01-31 05:00:00,37.8,21.7,30.14,SW,225,0.0,0.0,52,0.00,,,0.00,Wunderground v.1.15,2013-01-31 11:00:00,
2013-01-31 05:10:00,37.4,22.7,30.13,SW,225,0.0,0.0,55,0.00,,,0.00,Wunderground v.1.15,2013-01-31 11:10:00,
2013-01-31 05:15:00,37.1,22.8,30.14,SW,225,0.0,0.0,56,0.00,,,0.00,Wunderground v.1.15,2013-01-31 11:15:00,
2013-01-31 05:20:00,36.8,23.4,30.13,SW,225,0.0,0.0,58,0.00,,,0.00,Wunderground v.1.15,2013-01-31 11:20:00,
2013-01-31 05:25:00,36.5,23.1,30.13,SW,225,0.0,0.0,58,0.00,,,0.00,Wunderground v.1.15,2013-01-31 11:25:00,
2013-01-31 05:30:00,36.1,22.7,30.13,SW,225,0.0,0.0,58,0.00,,,0.00,Wunderground v.1.15,2013-01-31 11:30:00,
2013-01-31 05:40:00,35.6,22.7,30.13,SW,225,0.0,0.0,59,0.00,,,0.00,Wunderground v.1.15,2013-01-31 11:40:00,
2013-01-31 05:45:00,35.2,23.1,30.13,SW,225,0.0,0.0,61,0.00,,,0.00,Wunderground v.1.15,2013-01-31 11:45:00,
2013-01-31 05:50:00,34.9,23.6,30.14,SW,225,0.0,0.0,63,0.00,,,0.00,Wunderground v.1.15,2013-01-31 11:50:00,
2013-01-31 05:55:00,34.6,23.3,30.14,SW,225,0.0,0.0,63,0.00,,,0.00,Wunderground v.1.15,2013-01-31 11:55:00,
2013-01-31 06:00:00,34.3,23.4,30.14,SW,225,0.0,0.0,64,0.00,,,0.00,Wunderground v.1.15,2013-01-31 12:00:00,
2013-01-31 06:10:00,33.7,23.5,30.14,SW,225,0.0,0.0,66,0.00,,,0.00,Wunderground v.1.15,2013-01-31 12:10:00,
2013-01-31 06:15:00,33.3,23.2,30.15,SW,225,0.0,0.0,66,0.00,,,0.00,Wunderground v.1.15,2013-01-31 12:15:00,
2013-01-31 06:25:00,32.8,23.4,30.14,SW,225,0.0,0.0,68,0.00,,,0.00,Wunderground v.1.15,2013-01-31 12:25:00,
2013-01-31 06:30:00,32.4,23.4,30.14,SW,225,0.0,0.0,69,0.00,,,0.00,Wunderground v.1.15,2013-01-31 12:30:00,
2013-01-31 06:35:00,32.2,23.2,30.14,SW,225,0.0,0.0,69,0.00,,,0.00,Wunderground v.1.15,2013-01-31 12:35:00,
2013-01-31 06:40:00,31.9,23.2,30.15,SW,225,0.0,0.0,70,0.00,,,0.00,Wunderground v.1.15,2013-01-31 12:40:00,
2013-01-31 06:50:00,31.5,23.2,30.14,SW,225,0.0,0.0,71,0.00,,,0.00,Wunderground v.1.15,2013-01-31 12:50:00,
2013-01-31 06:55:00,31.3,23.3,30.14,SW,225,0.0,0.0,72,0.00,,,0.00,Wunderground v.1.15,2013-01-31 12:55:00,
2013-01-31 07:00:00,31.2,23.5,30.15,SW,225,0.0,0.0,73,0.00,,,0.00,Wunderground v.1.15,2013-01-31 13:00:00,
2013-01-31 07:10:00,31.5,23.8,30.15,SW,225,0.0,0.0,73,0.00,,,0.00,Wunderground v.1.15,2013-01-31 13:10:00,
2013-01-31 07:15:00,31.6,23.6,30.15,SW,225,0.0,0.0,72,0.00,,,0.00,Wunderground v.1.15,2013-01-31 13:15:00,
2013-01-31 07:20:00,31.6,23.6,30.15,SW,225,0.0,0.0,72,0.00,,,0.00,Wunderground v.1.15,2013-01-31 13:20:00,
2013-01-31 07:25:00,31.8,24.5,30.15,SW,225,0.0,0.0,74,0.00,,,0.00,Wunderground v.1.15,2013-01-31 13:25:00,
2013-01-31 07:35:00,31.8,24.5,30.16,SW,225,0.0,0.0,74,0.00,,,0.00,Wunderground v.1.15,2013-01-31 13:35:00,
2013-01-31 07:40:00,31.7,24.7,30.16,SW,225,0.0,1.0,75,0.00,,,0.00,Wunderground v.1.15,2013-01-31 13:40:00,
2013-01-31 07:45:00,31.6,24.9,30.17,SW,225,1.0,1.0,76,0.00,,,0.00,Wunderground v.1.15,2013-01-31 13:45:00,
2013-01-31 07:50:00,31.5,24.8,30.17,SW,225,1.0,1.0,76,0.00,,,0.00,Wunderground v.1.15,2013-01-31 13:50:00,
2013-01-31 08:00:00,31.5,25.1,30.18,SW,225,0.0,0.0,77,0.00,,,0.00,Wunderground v.1.15,2013-01-31 14:00:00,
2013-01-31 08:10:00,33.7,26.9,30.18,SW,215,1.0,1.0,76,0.00,,,0.00,Wunderground v.1.15,2013-01-31 14:10:00,
2013-01-31 08:15:00,35.0,26.9,30.18,SSE,164,2.0,2.0,72,0.00,,,0.00,Wunderground v.1.15,2013-01-31 14:15:00,
2013-01-31 08:20:00,35.9,27.1,30.17,SSE,164,3.0,4.0,70,0.00,,,0.00,Wunderground v.1.15,2013-01-31 14:20:00,
2013-01-31 08:25:00,36.6,27.0,30.17,SSE,164,3.0,5.0,68,0.00,,,0.00,Wunderground v.1.15,2013-01-31 14:25:00,
2013-01-31 08:30:00,37.2,26.9,30.17,SSE,162,3.0,3.0,66,0.00,,,0.00,Wunderground v.1.15,2013-01-31 14:30:00,
2013-01-31 08:35:00,37.9,27.2,30.17,SSE,162,2.0,3.0,65,0.00,,,0.00,Wunderground v.1.15,2013-01-31 14:35:00,
2013-01-31 08:45:00,39.9,27.1,30.18,SSE,163,1.0,2.0,60,0.00,,,0.00,Wunderground v.1.15,2013-01-31 14:45:00,
2013-01-31 08:50:00,41.1,27.4,30.18,SSE,163,0.0,0.0,58,0.00,,,0.00,Wunderground v.1.15,2013-01-31 14:50:00,
2013-01-31 08:55:00,42.2,27.2,30.18,South,171,0.0,4.0,55,0.00,,,0.00,Wunderground v.1.15,2013-01-31 14:55:00,
2013-01-31 09:00:00,43.0,27.0,30.18,South,170,2.0,4.0,53,0.00,,,0.00,Wunderground v.1.15,2013-01-31 15:00:00,
2013-01-31 09:10:00,43.8,27.8,30.19,SSE,166,4.0,6.0,53,0.00,,,0.00,Wunderground v.1.15,2013-01-31 15:10:00,
2013-01-31 09:20:00,44.7,28.1,30.19,South,173,5.0,8.0,52,0.00,,,0.00,Wunderground v.1.15,2013-01-31 15:20:00,
2013-01-31 09:25:00,45.4,28.8,30.19,South,186,5.0,8.0,52,0.00,,,0.00,Wunderground v.1.15,2013-01-31 15:25:00,
2013-01-31 09:30:00,46.5,28.3,30.19,SSW,202,4.0,4.0,49,0.00,,,0.00,Wunderground v.1.15,2013-01-31 15:30:00,
2013-01-31 09:40:00,47.8,28.5,30.19,SSW,200,5.0,6.0,47,0.00,,,0.00,Wunderground v.1.15,2013-01-31 15:40:00,
2013-01-31 09:45:00,48.8,28.9,30.19,South,187,4.0,6.0,46,0.00,,,0.00,Wunderground v.1.15,2013-01-31 15:45:00,
2013-01-31 09:50:00,49.6,29.1,30.20,South,188,5.0,6.0,45,0.00,,,0.00,Wunderground v.1.15,2013-01-31 15:50:00,
2013-01-31 09:55:00,50.3,29.2,30.20,SSW,192,6.0,6.0,44,0.00,,,0.00,Wunderground v.1.15,2013-01-31 15:55:00,
2013-01-31 10:00:00,51.2,28.3,30.20,South,190,6.0,6.0,41,0.00,,,0.00,Wunderground v.1.15,2013-01-31 16:00:00,
2013-01-31 10:10:00,53.3,28.9,30.19,SSW,194,6.0,7.0,39,0.00,,,0.00,Wunderground v.1.15,2013-01-31 16:10:00,
2013-01-31 10:15:00,54.6,30.1,30.20,South,190,5.0,7.0,39,0.00,,,0.00,Wunderground v.1.15,2013-01-31 16:15:00,
2013-01-31 10:20:00,55.6,29.0,30.20,South,182,5.0,13.0,36,0.00,,,0.00,Wunderground v.1.15,2013-01-31 16:20:00,
2013-01-31 10:30:00,56.2,27.4,30.20,South,191,7.0,8.0,33,0.00,,,0.00,Wunderground v.1.15,2013-01-31 16:30:00,
2013-01-31 10:35:00,57.0,27.4,30.20,South,187,7.0,8.0,32,0.00,,,0.00,Wunderground v.1.15,2013-01-31 16:35:00,
2013-01-31 10:40:00,57.5,26.3,30.20,SSW,209,7.0,7.0,30,0.00,,,0.00,Wunderground v.1.15,2013-01-31 16:40:00,
2013-01-31 10:45:00,57.7,25.6,30.20,SSW,211,8.0,8.0,29,0.00,,,0.00,Wunderground v.1.15,2013-01-31 16:45:00,
2013-01-31 10:55:00,59.0,26.8,30.20,SW,219,7.0,13.0,29,0.00,,,0.00,Wunderground v.1.15,2013-01-31 16:55:00,
2013-01-31 11:00:00,59.2,26.9,30.19,SSW,213,6.0,7.0,29,0.00,,,0.00,Wunderground v.1.15,2013-01-31 17:00:00,
2013-01-31 11:10:00,60.5,27.2,30.19,SSW,204,7.0,11.0,28,0.00,,,0.00,Wunderground v.1.15,2013-01-31 17:10:00,
2013-01-31 11:15:00,60.6,26.4,30.19,SSW,212,7.0,11.0,27,0.00,,,0.00,Wunderground v.1.15,2013-01-31 17:15:00,
2013-01-31 11:20:00,60.4,26.2,30.19,SSW,210,8.0,8.0,27,0.00,,,0.00,Wunderground v.1.15,2013-01-31 17:20:00,
2013-01-31 11:25:00,60.2,26.9,30.20,WSW,237,9.0,12.0,28,0.00,,,0.00,Wunderground v.1.15,2013-01-31 17:25:00,
2013-01-31 11:30:00,60.2,27.8,30.19,SW,223,8.0,9.0,29,0.00,,,0.00,Wunderground v.1.15,2013-01-31 17:30:00,
2013-01-31 11:40:00,61.7,27.3,30.18,SW,222,6.0,8.0,27,0.00,,,0.00,Wunderground v.1.15,2013-01-31 17:40:00,
2013-01-31 11:45:00,62.2,28.7,30.18,WSW,239,6.0,13.0,28,0.00,,,0.00,Wunderground v.1.15,2013-01-31 17:45:00,
2013-01-31 11:50:00,62.3,27.9,30.18,WSW,250,7.0,7.0,27,0.00,,,0.00,Wunderground v.1.15,2013-01-31 17:50:00,
2013-01-31 11:55:00,62.5,28.0,30.18,SSW,211,8.0,8.0,27,0.00,,,0.00,Wunderground v.1.15,2013-01-31 17:55:00,
2013-01-31 12:00:00,62.6,27.2,30.19,SW,215,8.0,12.0,26,0.00,,,0.00,Wunderground v.1.15,2013-01-31 18:00:00,
2013-01-31 12:10:00,63.5,27.0,30.18,WSW,244,8.0,10.0,25,0.00,,,0.00,Wunderground v.1.15,2013-01-31 18:10:00,
2013-01-31 12:15:00,63.5,28.0,30.18,WSW,240,7.0,10.0,26,0.00,,,0.00,Wunderground v.1.15,2013-01-31 18:15:00,
2013-01-31 12:25:00,64.8,28.1,30.18,SW,227,7.0,12.0,25,0.00,,,0.00,Wunderground v.1.15,2013-01-31 18:25:00,
2013-01-31 12:30:00,64.5,26.9,30.18,WSW,246,7.0,8.0,24,0.00,,,0.00,Wunderground v.1.15,2013-01-31 18:30:00,
2013-01-31 12:35:00,64.5,26.9,30.17,SW,219,9.0,11.0,24,0.00,,,0.00,Wunderground v.1.15,2013-01-31 18:35:00,
2013-01-31 12:40:00,64.6,24.9,30.17,SW,215,10.0,10.0,22,0.00,,,0.00,Wunderground v.1.15,2013-01-31 18:40:00,
2013-01-31 12:45:00,65.3,27.5,30.17,South,191,8.0,11.0,24,0.00,,,0.00,Wunderground v.1.15,2013-01-31 18:45:00,
2013-01-31 12:55:00,65.3,26.5,30.16,SSW,198,9.0,12.0,23,0.00,,,0.00,Wunderground v.1.15,2013-01-31 18:55:00,
2013-01-31 13:00:00,65.4,25.5,30.15,SSW,199,9.0,9.0,22,0.00,,,0.00,Wunderground v.1.15,2013-01-31 19:00:00,
2013-01-31 13:10:00,65.8,25.9,30.14,SSW,206,8.0,8.0,22,0.00,,,0.00,Wunderground v.1.15,2013-01-31 19:10:00,
2013-01-31 13:15:00,66.0,26.0,30.14,SSW,209,9.0,9.0,22,0.00,,,0.00,Wunderground v.1.15,2013-01-31 19:15:00,
2013-01-31 13:20:00,66.5,27.5,30.13,SW,236,8.0,8.0,23,0.00,,,0.00,Wunderground v.1.15,2013-01-31 19:20:00,
2013-01-31 13:25:00,66.9,26.8,30.13,SW,221,7.0,12.0,22,0.00,,,0.00,Wunderground v.1.15,2013-01-31 19:25:00,
2013-01-31 13:35:00,67.1,25.8,30.12,SW,220,9.0,9.0,21,0.00,,,0.00,Wunderground v.1.15,2013-01-31 19:35:00,
2013-01-31 13:40:00,67.5,26.2,30.12,SSW,213,9.0,9.0,21,0.00,,,0.00,Wunderground v.1.15,2013-01-31 19:40:00,
2013-01-31 13:45:00,68.0,25.4,30.12,SW,227,9.0,13.0,20,0.00,,,0.00,Wunderground v.1.15,2013-01-31 19:45:00,
2013-01-31 13:50:00,67.9,26.5,30.11,SSW,213,8.0,10.0,21,0.00,,,0.00,Wunderground v.1.15,2013-01-31 19:50:00,
2013-01-31 13:55:00,68.1,25.5,30.11,SW,230,9.0,10.0,20,0.00,,,0.00,Wunderground v.1.15,2013-01-31 19:55:00,
2013-01-31 14:00:00,68.4,26.9,30.11,SW,233,8.0,17.0,21,0.00,,,0.00,Wunderground v.1.15,2013-01-31 20:00:00,
2013-01-31 14:10:00,67.9,25.3,30.11,SW,219,13.0,13.0,20,0.00,,,0.00,Wunderground v.1.15,2013-01-31 20:10:00,
2013-01-31 14:20:00,69.1,26.3,30.11,SSW,194,9.0,9.0,20,0.00,,,0.00,Wunderground v.1.15,2013-01-31 20:20:00,
2013-01-31 14:25:00,69.6,26.7,30.11,WSW,244,10.0,14.0,20,0.00,,,0.00,Wunderground v.1.15,2013-01-31 20:25:00,
2013-01-31 14:30:00,69.4,26.6,30.11,SW,216,10.0,10.0,20,0.00,,,0.00,Wunderground v.1.15,2013-01-31 20:30:00,
2013-01-31 14:35:00,68.7,26.0,30.11,WSW,246,12.0,12.0,20,0.00,,,0.00,Wunderground v.1.15,2013-01-31 20:35:00,
2013-01-31 14:40:00,68.3,25.6,30.11,SW,227,12.0,12.0,20,0.00,,,0.00,Wunderground v.1.15,2013-01-31 20:40:00,
2013-01-31 14:50:00,68.8,26.1,30.10,SW,219,10.0,10.0,20,0.00,,,0.00,Wunderground v.1.15,2013-01-31 20:50:00,
2013-01-31 14:55:00,69.0,26.2,30.11,SW,221,11.0,17.0,20,0.00,,,0.00,Wunderground v.1.15,2013-01-31 20:55:00,
2013-01-31 15:00:00,69.1,26.3,30.11,SSW,205,10.0,10.0,20,0.00,,,0.00,Wunderground v.1.15,2013-01-31 21:00:00,
2013-01-31 15:10:00,68.8,24.8,30.11,SW,222,12.0,13.0,19,0.00,,,0.00,Wunderground v.1.15,2013-01-31 21:10:00,
2013-01-31 15:15:00,68.9,26.1,30.11,WSW,238,11.0,13.0,20,0.00,,,0.00,Wunderground v.1.15,2013-01-31 21:15:00,
2013-01-31 15:20:00,69.3,26.5,30.11,SSW,211,10.0,12.0,20,0.00,,,0.00,Wunderground v.1.15,2013-01-31 21:20:00,
2013-01-31 15:25:00,68.9,24.9,30.11,WSW,258,13.0,13.0,19,0.00,,,0.00,Wunderground v.1.15,2013-01-31 21:25:00,
2013-01-31 15:35:00,68.9,24.9,30.10,WSW,248,11.0,13.0,19,0.00,,,0.00,Wunderground v.1.15,2013-01-31 21:35:00,
2013-01-31 15:40:00,69.0,26.2,30.10,SSW,211,11.0,11.0,20,0.00,,,0.00,Wunderground v.1.15,2013-01-31 21:40:00,
2013-01-31 15:45:00,69.3,25.2,30.09,SW,217,10.0,19.0,19,0.00,,,0.00,Wunderground v.1.15,2013-01-31 21:45:00,
2013-01-31 15:50:00,68.7,26.0,30.09,SW,226,12.0,12.0,20,0.00,,,0.00,Wunderground v.1.15,2013-01-31 21:50:00,
2013-01-31 16:00:00,68.8,24.8,30.09,SW,235,10.0,11.0,19,0.00,,,0.00,Wunderground v.1.15,2013-01-31 22:00:00,
2013-01-31 16:10:00,69.1,25.1,30.09,SW,228,10.0,10.0,19,0.00,,,0.00,Wunderground v.1.15,2013-01-31 22:10:00,
2013-01-31 16:15:00,68.8,24.8,30.09,WSW,238,10.0,10.0,19,0.00,,,0.00,Wunderground v.1.15,2013-01-31 22:15:00,
2013-01-31 16:20:00,68.6,24.7,30.09,SSW,207,9.0,10.0,19,0.00,,,0.00,Wunderground v.1.15,2013-01-31 22:20:00,
2013-01-31 16:25:00,68.5,24.6,30.09,SW,227,9.0,14.0,19,0.00,,,0.00,Wunderground v.1.15,2013-01-31 22:25:00,
2013-01-31 16:30:00,67.8,24.0,30.09,SW,225,10.0,10.0,19,0.00,,,0.00,Wunderground v.1.15,2013-01-31 22:30:00,
2013-01-31 16:35:00,67.2,24.7,30.09,SW,228,9.0,10.0,20,0.00,,,0.00,Wunderground v.1.15,2013-01-31 22:35:00,
2013-01-31 16:45:00,67.2,24.7,30.10,SW,217,8.0,10.0,20,0.00,,,0.00,Wunderground v.1.15,2013-01-31 22:45:00,
2013-01-31 16:50:00,67.6,25.1,30.10,WSW,238,8.0,8.0,20,0.00,,,0.00,Wunderground v.1.15,2013-01-31 22:50:00,
2013-01-31 16:55:00,67.8,25.2,30.10,WSW,249,8.0,8.0,20,0.00,,,0.00,Wunderground v.1.15,2013-01-31 22:55:00,
2013-01-31 17:00:00,68.0,25.4,30.11,West,264,7.0,7.0,20,0.00,,,0.00,Wunderground v.1.15,2013-01-31 23:00:00,
2013-01-31 17:10:00,67.9,25.3,30.11,SW,215,7.0,11.0,20,0.00,,,0.00,Wunderground v.1.15,2013-01-31 23:10:00,
2013-01-31 17:15:00,67.6,25.1,30.12,SW,222,8.0,13.0,20,0.00,,,0.00,Wunderground v.1.15,2013-01-31 23:15:00,
2013-01-31 17:20:00,67.2,24.7,30.13,SW,230,9.0,9.0,20,0.00,,,0.00,Wunderground v.1.15,2013-01-31 23:20:00,
2013-01-31 17:30:00,66.8,24.4,30.13,WSW,257,8.0,8.0,20,0.00,,,0.00,Wunderground v.1.15,2013-01-31 23:30:00,
2013-01-31 17:35:00,66.5,25.3,30.13,WSW,238,6.0,8.0,21,0.00,,,0.00,Wunderground v.1.15,2013-01-31 23:35:00,
2013-01-31 17:40:00,66.1,25.0,30.13,WSW,249,6.0,6.0,21,0.00,,,0.00,Wunderground v.1.15,2013-01-31 23:40:00,
2013-01-31 17:45:00,65.8,24.7,30.13,WSW,246,6.0,6.0,21,0.00,,,0.00,Wunderground v.1.15,2013-01-31 23:45:00,
2013-01-31 17:50:00,65.5,24.5,30.13,WSW,240,4.0,4.0,21,0.00,,,0.00,Wunderground v.1.15,2013-01-31 23:50:00,
2013-01-31 18:00:00,64.7,24.9,30.13,WSW,245,1.0,1.0,22,0.00,,,0.00,Wunderground v.1.15,2013-02-01 00:00:00,
2013-01-31 18:10:00,63.9,25.3,30.13,WSW,244,1.0,1.0,23,0.00,,,0.00,Wunderground v.1.15,2013-02-01 00:10:00,
2013-01-31 18:15:00,63.5,25.0,30.14,WSW,244,0.0,1.0,23,0.00,,,0.00,Wunderground v.1.15,2013-02-01 00:15:00,
2013-01-31 18:20:00,63.0,25.6,30.14,WSW,244,0.0,0.0,24,0.00,,,0.00,Wunderground v.1.15,2013-02-01 00:20:00,
2013-01-31 18:25:00,62.4,26.1,30.14,WSW,244,0.0,0.0,25,0.00,,,0.00,Wunderground v.1.15,2013-02-01 00:25:00,
2013-01-31 18:30:00,61.7,26.4,30.14,WSW,244,0.0,0.0,26,0.00,,,0.00,Wunderground v.1.15,2013-02-01 00:30:00,
2013-01-31 18:40:00,60.2,26.1,30.14,WSW,244,0.0,0.0,27,0.00,,,0.00,Wunderground v.1.15,2013-02-01 00:40:00,
2013-01-31 18:45:00,59.4,26.2,30.14,WSW,244,0.0,0.0,28,0.00,,,0.00,Wunderground v.1.15,2013-02-01 00:45:00,
2013-01-31 18:50:00,58.7,26.5,30.15,WSW,244,0.0,0.0,29,0.00,,,0.00,Wunderground v.1.15,2013-02-01 00:50:00,
2013-01-31 18:55:00,57.9,26.6,30.14,WSW,244,0.0,0.0,30,0.00,,,0.00,Wunderground v.1.15,2013-02-01 00:55:00,
2013-01-31 19:00:00,57.2,26.0,30.15,WSW,244,0.0,0.0,30,0.00,,,0.00,Wunderground v.1.15,2013-02-01 01:00:00,
2013-01-31 19:10:00,56.1,25.8,30.15,WSW,244,0.0,0.0,31,0.00,,,0.00,Wunderground v.1.15,2013-02-01 01:10:00,
2013-01-31 19:15:00,55.6,26.2,30.15,WSW,244,0.0,0.0,32,0.00,,,0.00,Wunderground v.1.15,2013-02-01 01:15:00,
2013-01-31 19:25:00,54.6,26.8,30.16,WSW,244,0.0,0.0,34,0.00,,,0.00,Wunderground v.1.15,2013-02-01 01:25:00,
2013-01-31 19:30:00,54.3,27.2,30.17,WSW,244,0.0,0.0,35,0.00,,,0.00,Wunderground v.1.15,2013-02-01 01:30:00,
2013-01-31 19:35:00,54.2,27.1,30.17,WSW,256,0.0,0.0,35,0.00,,,0.00,Wunderground v.1.15,2013-02-01 01:35:00,
2013-01-31 19:40:00,54.3,26.5,30.18,WSW,256,0.0,0.0,34,0.00,,,0.00,Wunderground v.1.15,2013-02-01 01:40:00,
2013-01-31 19:45:00,54.4,27.3,30.18,WSW,255,0.0,0.0,35,0.00,,,0.00,Wunderground v.1.15,2013-02-01 01:45:00,
2013-01-31 19:55:00,54.5,26.7,30.19,WSW,256,0.0,0.0,34,0.00,,,0.00,Wunderground v.1.15,2013-02-01 01:55:00,
2013-01-31 20:00:00,54.4,27.3,30.19,WSW,256,0.0,0.0,35,0.00,,,0.00,Wunderground v.1.15,2013-02-01 02:00:00,
2013-01-31 20:10:00,54.1,27.0,30.19,WSW,256,0.0,0.0,35,0.00,,,0.00,Wunderground v.1.15,2013-02-01 02:10:00,
2013-01-31 20:15:00,53.9,26.8,30.20,West,262,0.0,0.0,35,0.00,,,0.00,Wunderground v.1.15,2013-02-01 02:15:00,
2013-01-31 20:20:00,54.0,27.6,30.20,WNW,282,1.0,1.0,36,0.00,,,0.00,Wunderground v.1.15,2013-02-01 02:20:00,
2013-01-31 20:25:00,54.2,27.8,30.21,NW,309,2.0,2.0,36,0.00,,,0.00,Wunderground v.1.15,2013-02-01 02:25:00,
2013-01-31 20:35:00,54.9,27.7,30.22,NNW,331,3.0,3.0,35,0.00,,,0.00,Wunderground v.1.15,2013-02-01 02:35:00,
2013-01-31 20:40:00,55.2,27.3,30.22,NNW,345,2.0,8.0,34,0.00,,,0.00,Wunderground v.1.15,2013-02-01 02:40:00,
2013-01-31 20:45:00,55.8,27.1,30.22,North,355,4.0,8.0,33,0.00,,,0.00,Wunderground v.1.15,2013-02-01 02:45:00,
2013-01-31 20:50:00,56.4,26.9,30.22,North,5,6.0,6.0,32,0.00,,,0.00,Wunderground v.1.15,2013-02-01 02:50:00,
2013-01-31 20:55:00,56.9,27.3,30.21,North,360,6.0,7.0,32,0.00,,,0.00,Wunderground v.1.15,2013-02-01 02:55:00,
2013-01-31 21:00:00,57.2,27.6,30.22,NNE,17,6.0,9.0,32,0.00,,,0.00,Wunderground v.1.15,2013-02-01 03:00:00,
2013-01-31 21:10:00,57.3,27.7,30.22,NNE,13,7.0,8.0,32,0.00,,,0.00,Wunderground v.1.15,2013-02-01 03:10:00,
2013-01-31 21:15:00,57.6,27.9,30.23,North,5,9.0,10.0,32,0.00,,,0.00,Wunderground v.1.15,2013-02-01 03:15:00,
2013-01-31 21:20:00,57.6,27.9,30.23,North,5,9.0,12.0,32,0.00,,,0.00,Wunderground v.1.15,2013-02-01 03:20:00,
2013-01-31 21:25:00,57.6,27.9,30.23,NNE,20,9.0,12.0,32,0.00,,,0.00,Wunderground v.1.15,2013-02-01 03:25:00,
2013-01-31 21:30:00,57.6,27.9,30.23,North,360,10.0,11.0,32,0.00,,,0.00,Wunderground v.1.15,2013-02-01 03:30:00,
2013-01-31 21:35:00,57.4,27.7,30.23,NE,41,9.0,11.0,32,0.00,,,0.00,Wunderground v.1.15,2013-02-01 03:35:00,
2013-01-31 21:45:00,57.0,28.1,30.24,NNE,26,9.0,12.0,33,0.00,,,0.00,Wunderground v.1.15,2013-02-01 03:45:00,
2013-01-31 21:50:00,56.8,29.4,30.24,NNE,23,12.0,12.0,35,0.00,,,0.00,Wunderground v.1.15,2013-02-01 03:50:00,
2013-01-31 21:55:00,56.3,30.3,30.24,NNE,19,13.0,13.0,37,0.00,,,0.00,Wunderground v.1.15,2013-02-01 03:55:00,
2013-01-31 22:00:00,55.5,30.9,30.25,North,9,14.0,20.0,39,0.00,,,0.00,Wunderground v.1.15,2013-02-01 04:00:00,
2013-01-31 22:10:00,53.9,31.3,30.26,NNE,23,13.0,13.0,42,0.00,,,0.00,Wunderground v.1.15,2013-02-01 04:10:00,
2013-01-31 22:15:00,53.0,31.6,30.26,NNE,18,13.0,21.0,44,0.00,,,0.00,Wunderground v.1.15,2013-02-01 04:15:00,
2013-01-31 22:20:00,52.2,31.5,30.26,North,5,13.0,19.0,45,0.00,,,0.00,Wunderground v.1.15,2013-02-01 04:20:00,
2013-01-31 22:25:00,51.4,31.8,30.27,NE,36,12.0,19.0,47,0.00,,,0.00,Wunderground v.1.15,2013-02-01 04:25:00,
2013-01-31 22:35:00,50.5,31.5,30.28,NE,42,11.0,14.0,48,0.00,,,0.00,Wunderground v.1.15,2013-02-01 04:35:00,
2013-01-31 22:40:00,50.2,30.7,30.28,NNE,33,11.0,11.0,47,0.00,,,0.00,Wunderground v.1.15,2013-02-01 04:40:00,
2013-01-31 22:45:00,50.0,30.5,30.28,NE,53,13.0,13.0,47,0.00,,,0.00,Wunderground v.1.15,2013-02-01 04:45:00,
2013-01-31 22:50:00,49.7,30.3,30.29,NE,49,12.0,12.0,47,0.00,,,0.00,Wunderground v.1.15,2013-02-01 04:50:00,
2013-01-31 23:01:00,48.7,29.4,30.29,ENE,63,14.0,14.0,47,0.00,,,0.00,Wunderground v.1.15,2013-02-01 05:01:00,
2013-01-31 23:05:00,48.2,29.4,30.29,North,11,14.0,14.0,48,0.00,,,0.00,Wunderground v.1.15,2013-02-01 05:05:00,
2013-01-31 23:10:00,47.8,29.5,30.30,NNE,30,13.0,18.0,49,0.00,,,0.00,Wunderground v.1.15,2013-02-01 05:10:00,
2013-01-31 23:15:00,47.5,29.3,30.30,NE,55,13.0,18.0,49,0.00,,,0.00,Wunderground v.1.15,2013-02-01 05:15:00,
2013-01-31 23:25:00,46.9,29.7,30.30,NE,38,9.0,11.0,51,0.00,,,0.00,Wunderground v.1.15,2013-02-01 05:25:00,
2013-01-31 23:30:00,46.6,29.4,30.30,NNE,26,9.0,12.0,51,0.00,,,0.00,Wunderground v.1.15,2013-02-01 05:30:00,
2013-01-31 23:35:00,46.5,29.3,30.30,NE,49,11.0,12.0,51,0.00,,,0.00,Wunderground v.1.15,2013-02-01 05:35:00,
2013-01-31 23:45:00,45.5,28.9,30.31,NNE,24,13.0,16.0,52,0.00,,,0.00,Wunderground v.1.15,2013-02-01 05:45:00,
2013-01-31 23:50:00,45.2,29.1,30.31,NNE,25,12.0,12.0,53,0.00,,,0.00,Wunderground v.1.15,2013-02-01 05:50:00,
2013-01-31 23:55:00,44.9,28.8,30.31,NE,39,10.0,12.0,53,0.00,,,0.00,Wunderground v.1.15,2013-02-01 05:55:00,